#timestamp,LO_Frequency,Hit,StdDev 
1501941615.8,286047000.5,N,1.0
1501941635.7,286047000.5,N,1.0
1501941655.5,286046998.1,N,1.1
1501941675.3,286046998.6,N,1.1
1501941695.2,286047001.1,N,1.1
1501941715.0,286047001.1,N,1.1
1501941715.9,286047001.1,N,1.1
1501941735.8,286047002.4,N,1.2
1501941755.6,286047002.3,N,1.3
1501941775.4,286046999.8,N,1.2
1501941795.3,286047000.3,N,1.2
1501941815.1,286046999.7,N,1.2
1501941835.9,286047002.5,N,1.3
1501941855.7,286047000.1,N,1.2
1501941875.5,286046999.9,N,1.2
1501941895.4,286047000.4,N,1.2
1501941915.2,286047001.1,N,1.2
1501941935.0,286046999.8,N,1.2
1501941935.9,286046999.8,N,1.1
1501941955.8,286047000.4,N,1.1
1501941975.6,286047000.6,N,1.1
1501941995.5,286047000.9,N,1.1
1501942015.3,286046999.8,N,1.1
1501942035.1,286047000.7,N,1.1
1501942055.9,286047000.9,N,1.0
1501942075.7,286047000.4,N,0.9
1501942095.6,286046998.4,N,1.0
1501942115.4,286047000.3,N,1.0
1501942135.2,286046998.6,N,1.0
1501942155.1,286047000.8,N,1.0
1501942156.0,286047000.8,N,1.0
1501942175.8,286047001.1,N,1.1
1501942195.7,286047001.1,N,1.0
1501942215.5,286046998.1,N,1.0
1501942235.3,286046998.6,N,1.1
1501942255.2,286047000.7,N,1.0
1501942275.0,286047000.5,N,1.0
1501942275.9,286047000.5,N,1.0
1501942295.8,286047001.1,N,0.9
1501942315.6,286046998.2,N,1.0
1501942335.4,286047001.2,N,1.0
1501942355.3,286046998.5,N,1.0
1501942375.1,286046998.6,N,1.0
1501942395.9,286046998.5,N,1.0
1501942415.7,286047001.1,N,1.0
1501942435.5,286047000.9,N,1.1
1501942455.4,286046998.3,N,1.1
1501942475.2,286047000.9,N,1.1
1501942495.0,286047000.8,N,1.1
1501942495.9,286047000.8,N,1.1
1501942515.8,286047000.1,N,1.1
1501942535.6,286047000.3,N,1.1
1501942555.5,286047000.2,N,1.1
1501942575.3,286046999.9,N,1.1
1501942595.1,286047000.0,N,1.1
1501942615.9,286047002.5,N,1.2
1501942635.7,286046999.7,N,1.1
1501942655.6,286046999.7,N,1.1
1501942675.4,286047000.4,N,1.1
1501942695.2,286047000.1,N,1.1
1501942715.1,286047000.3,N,1.1
1501942716.0,286047000.3,N,1.1
1501942735.8,286047000.6,N,1.1
1501942755.7,286046999.8,N,1.0
1501942775.5,286047002.5,N,1.0
1501942795.3,286047002.7,N,1.1
1501942815.2,286047002.6,N,1.2
1501942835.0,286047002.5,N,1.3
1501942835.9,286047002.5,N,1.3
1501942855.7,286047001.9,N,1.3
1501942875.6,286047001.6,N,1.3
1501942895.4,286047001.9,N,1.2
1501942915.3,286047001.4,N,1.2
1501942935.1,286047002.6,N,1.1
1501942955.8,286047002.5,N,1.2
1501942975.7,286047002.0,N,1.2
1501942995.5,286047002.4,N,1.1
1501943015.4,286047002.1,N,1.1
1501943035.2,286047001.3,N,1.1
1501943055.0,286047001.8,N,1.1
1501943055.9,286047001.8,N,1.1
1501943075.8,286047004.2,Y,0.0
1501943095.6,286047001.9,P,0.3
1501943115.5,286047002.0,P,0.3
1501943135.3,286047001.5,P,0.3
1501943155.1,286047004.1,Y,0.0
1501943175.9,286047002.4,P,0.4
1501943195.7,286047002.1,P,0.3
1501943215.6,286046999.9,N,1.0
1501943235.4,286047001.9,N,0.9
1501943255.2,286047000.1,N,1.0
1501943275.1,286047002.2,N,1.0
1501943276.0,286047002.2,N,0.9
1501943295.8,286047002.6,N,0.9
1501943315.7,286047002.0,N,0.9
1501943335.5,286047002.6,N,0.9
1501943355.3,286047001.8,N,0.8
1501943375.2,286047002.2,N,0.8
1501943395.0,286047002.5,Y,0.0
1501943395.9,286047002.5,P,0.3
1501943415.8,286047000.5,N,0.8
1501943435.6,286047001.0,N,0.8
1501943455.5,286047000.6,N,0.8
1501943475.3,286046998.1,N,1.4
1501943495.1,286046998.5,N,1.5
1501943515.9,286046999.0,N,1.5
1501943535.7,286046999.3,N,1.4
1501943555.6,286046999.4,N,1.4
1501943575.4,286046998.9,N,1.4
1501943595.2,286046998.3,N,1.4
1501943615.1,286047001.1,N,1.4
1501943616.0,286047001.1,N,1.3
1501943635.8,286047001.2,N,1.3
1501943655.7,286047001.2,N,1.3
1501943675.5,286047000.4,N,1.3
1501943695.3,286047001.0,N,1.3
1501943715.2,286047000.8,N,1.2
1501943735.0,286046999.9,N,1.2
1501943735.9,286046999.9,N,1.2
1501943755.8,286046998.2,N,1.2
1501943775.6,286047000.7,N,1.2
1501943795.4,286047000.0,N,1.2
1501943815.3,286047000.7,N,1.2
1501943835.1,286046999.7,N,1.1
1501943855.9,286047001.0,N,1.1
1501943875.7,286047000.8,N,1.1
1501943895.5,286047000.9,N,1.1
1501943915.4,286046998.6,N,1.1
1501943935.2,286047000.2,N,1.1
1501943955.0,286047000.9,N,1.0
1501943956.0,286047000.9,N,1.0
1501943975.8,286046999.7,N,1.0
1501943995.6,286047002.7,N,1.1
1501944015.5,286047002.8,N,1.1
1501944035.3,286047000.2,N,1.1
1501944055.1,286047000.3,N,1.1
1501944075.9,286047002.4,N,1.1
1501944095.7,286047002.8,N,1.2
1501944115.6,286047002.8,N,1.2
1501944135.4,286047000.1,N,1.1
1501944155.2,286047000.1,N,1.1
1501944175.1,286046999.8,N,1.1
1501944176.0,286046999.8,N,1.1
1501944195.8,286047002.8,N,1.2
1501944215.7,286046999.8,N,1.2
1501944235.5,286047002.7,N,1.3
1501944255.3,286047004.4,Y,0.0
1501944275.2,286047002.6,P,0.9
1501944295.0,286047001.9,N,0.8
1501944295.9,286047001.9,N,0.7
1501944315.8,286046999.8,N,1.0
1501944335.6,286046999.7,N,1.1
1501944355.4,286047000.3,N,1.1
1501944375.3,286047001.0,N,1.0
1501944395.1,286047000.6,N,0.9
1501944415.9,286047000.9,N,0.9
1501944435.7,286047000.3,N,0.9
1501944455.5,286047000.6,N,0.8
1501944475.4,286047000.2,N,0.8
1501944495.2,286047000.1,N,0.8
1501944515.0,286047002.7,Y,0.0
1501944516.0,286047002.7,P,1.0
1501944535.8,286047002.8,N,0.9
1501944555.6,286047002.1,N,0.8
1501944575.5,286047002.7,Y,0.0
1501944595.3,286046998.5,P,1.8
1501944615.1,286046999.5,N,1.5
1501944635.9,286046997.5,N,1.7
1501944655.7,286046996.5,N,1.9
1501944675.6,286046996.8,N,1.9
1501944695.4,286046997.3,N,1.8
1501944715.2,286046996.8,N,1.8
1501944735.1,286046999.2,N,1.7
1501944736.0,286046999.2,N,1.6
1501944755.8,286046997.1,N,1.6
1501944775.7,286046998.7,N,1.5
1501944795.5,286046998.2,N,1.5
1501944815.3,286046998.6,N,1.4
1501944835.2,286046998.9,N,1.4
1501944855.0,286046999.6,N,1.4
1501944855.9,286046999.6,N,1.4
1501944875.8,286046996.6,N,1.4
1501944895.6,286046999.3,N,1.4
1501944915.4,286046999.0,N,1.3
1501944935.3,286047001.1,N,1.4
1501944955.1,286046998.6,N,1.4
1501944975.9,286046998.1,N,1.4
1501944995.7,286047000.8,N,1.4
1501945015.5,286046998.7,N,1.4
1501945035.4,286046998.1,N,1.4
1501945055.2,286046998.8,N,1.3
1501945075.1,286046998.5,N,1.3
1501945076.0,286046998.5,N,1.3
1501945095.8,286047000.7,N,1.3
1501945115.6,286046998.2,N,1.2
1501945135.5,286047000.5,N,1.2
1501945155.3,286047000.7,N,1.3
1501945175.2,286047001.1,N,1.3
1501945195.0,286047002.8,N,1.4
1501945195.9,286047002.8,N,1.5
